Showing default

GALILEO 21 (2C7), 43057

Orbit data source: Space-Track

GALILEO 21 (2C7), 43057 is a payload satellite owned by GNSS Agency (ESA) that was launched on Tue, 12 Dec 2017 UTC via an ARIANE 5ES launch vehicle from the French Guiana (FRGUI). Payload-class satellites include a variety of spacecraft equipped with specific instruments for various scientific and technological missions. These include communications satellites like Starlink; space stations such as the ISS; scientific satellites like the Hubble; Earth observation satellites from companies like Planet Labs, Umbra, and HawkEye 360; GPS; miniature CubeSats for education and research; and military/defense satellites.

Loading next visibility...
Identifier
43057, 2017-079C
Orbit
Active
Country
Flag of ESAESA
Related business
Manufacturer
OHB
Mission
Operational Civil Navigation
Bus & Motor
GALILEOSAT, AOCS
Mass
715 kg wet, 700 kg dry
Launch date (UTC)
2017-12-12 (8 years ago)
Launch vehicle
ARIANE 5ES
Launch site
French Guiana (FRGUI)
Object type
Payload
Rocket body
Debris
Shape & HBR
Box + 2 Pan, 7.3 m
Radar Cross Section
9.223 m², Large (>1 m²)

Expand to show TLE details & history
Last TLE update: 22 hours ago

TLE from 22 hours ago
0 GALILEO 21 (2C7)
1 43057U 17079C   26070.56842350  .00000037  00000-0  00000+0 0  9990
2 43057  55.1053 224.1878 0001948 351.3112   8.6445  1.70474613 51321
Epoch: 2026-03-11T13:38Z
TLE epoch observation values (Epoch: 2026-03-11T13:38:31.790Z)
Latitude
-0.00001°
Longitude
-149.68376°
Altitude
23,216.681 km
Speed
3.67 km/s
True Right ascension
14h 56m 43s
True Declination
0° 00' 00"
Sunlit
Object was in daylight at epoch
Visualization orbit readout
Latitude
Unknown
Longitude
Unknown
Altitude
Unknown
Speed
Unknown
Apparent Right ascension
Unknown
Apparent Declination
Unknown
Sunlit
N/A
Visualization observer readout
Local Sidereal Time
15:43:29
Azimuth
Unknown
Elevation
Unknown
Doppler factor
Unknown
Orbital elements
Apogee altitude
23,227.883 km
Perigee altitude
23,216.351 km
Semi-major axis
29,600.254 km
Eccentricity
0.00019
Inclination
55.1053°
RAAN
224.1878°
Arg. of periapsis
351.3112°
True anomaly
8.64786°
Mean anomaly
8.6445°
Eccentric anomaly
8.64618°
Mean motion
0.42619 °/min
Orbital period
844.7 mins
BSTAR
0
Loading maneuver chart data...
Computing Atmospheric mass density...
Loading historical data...
Loading historical data...
Loading historical data...
Loading historical data...
Loading historical data...
Loading historical data...
Loading historical data...
Other satellites on launch #79 in the year 2017 (2017-12-12 UTC)

Documentation

Showing up to 5 results
|